Wind_Speed
18 18 17 17 17 17 16 15 13 12 11 11 11 11 12 12 12 13 13 13 13 14 14 15 16 17 18 18 19 19 20 20 20 21 22 23 23 23 24 24 23 23 22
17 16 15 14 14 13 12 12 11 11 11 11 12 12 12 12 13 14 14 15 15 16 16 17 18 18 19 20 21 22 23 24 24 24 25 26 26 27 28 27 27 26 26
14 12 11 10 9 8 8 8 8 9 10 11 12 13 13 14 14 15 16 17 17 18 19 19 20 20 21 22 23 24 25 26 27 28 28 29 30 30 31 31 30 29 29
10 9 8 7 6 5 5 5 6 7 9 10 12 13 14 15 16 16 17 18 19 20 21 22 23 24 24 25 25 26 27 29 30 31 31 32 33 34 34 34 34 33 32
9 8 7 6 5 4 4 4 5 6 8 9 11 12 12 13 15 16 17 19 20 21 23 24 26 27 27 28 28 29 30 31 32 33 35 36 37 38 38 37 37 37 36
10 9 8 7 6 5 5 5 5 6 7 7 8 9 10 11 13 15 16 18 19 21 23 24 26 27 28 29 29 30 31 32 34 35 36 37 37 37 38 38 38 39 39
12 11 10 9 8 7 6 5 5 5 5 6 7 8 9 10 12 14 15 16 17 19 20 22 23 25 26 27 28 28 29 31 32 33 33 33 33 33 33 33 34 34 35
14 13 12 10 8 8 7 6 6 6 7 7 8 9 10 11 12 13 14 15 16 18 19 21 23 24 26 27 27 28 28 29 30 30 30 30 31 31 31 31 30 30 30
15 12 12 11 10 10 9 8 8 9 10 11 12 13 14 14 15 16 16 16 17 18 19 20 22 23 25 26 27 27 27 27 27 27 28 28 29 30 31 31 31 30 30
14 12 12 11 10 10 10 10 11 12 13 14 15 16 17 18 19 19 19 19 19 19 20 21 22 23 25 26 27 28 28 28 29 29 29 30 30 31 31 31 31 31 30
14 12 12 11 11 10 11 12 13 14 15 16 17 17 18 18 19 20 21 21 21 21 21 23 24 25 27 28 29 29 30 30 31 32 32 32 32 32 32 32 32 32 31
15 14 13 12 12 11 11 12 13 14 15 17 18 18 18 19 20 21 22 23 23 23 23 24 24 25 26 28 29 30 31 32 33 34 35 35 36 35 35 35 35 35 35
15 15 15 13 13 14 13 13 13 15 16 17 18 19 20 21 22 23 24 24 24 25 25 24 25 25 26 28 29 30 32 33 35 37 38 39 40 40 40 40 40 40 40
17 16 16 15 14 14 14 14 15 15 17 18 20 21 22 23 24 25 25 26 26 26 27 28 28 29 30 31 32 34 35 36 38 40 42 43 44 45 45 45 45 45 45
18 18 17 16 16 15 16 16 16 17 18 20 21 23 25 25 25 25 26 27 28 29 30 31 32 33 33 35 37 38 39 40 41 43 45 46 48 49 49 49 49 49 49
20 19 19 18 17 17 17 17 17 19 21 21 22 23 24 25 25 26 27 28 30 30 32 33 34 35 36 37 39 41 42 44 45 46 47 48 50 51 53 54 54 54 53
22 22 21 20 19 19 18 18 17 18 20 20 21 22 23 24 26 27 29 30 31 33 34 36 37 39 40 41 43 44 45 47 48 49 50 51 52 53 55 56 57 57 57
24 23 22 21 21 21 20 19 19 19 20 21 22 23 25 27 28 30 32 33 35 36 38 40 41 43 45 46 48 49 50 51 51 53 54 55 57 58 58 59 60 60 60
26 24 23 23 23 23 22 22 22 22 24 25 26 27 28 30 32 33 35 37 39 41 42 44 45 47 48 50 51 53 54 55 56 57 58 60 61 63 64 65 66 66 66
26 25 24 25 26 26 25 25 26 27 29 30 31 31 32 34 35 38 40 42 44 46 47 49 50 52 53 54 55 55 56 57 59 59 59 61 63 64 66 67 68 69 70
26 26 27 28 29 29 29 30 31 33 34 35 36 36 37 38 40 42 44 47 48 50 52 53 54 55 56 57 57 57 57 58 58 58 58 58 58 59 61 63 65 66 68
28 28 30 32 33 34 35 35 36 38 39 40 40 41 41 43 45 48 50 52 53 55 56 56 57 58 59 58 58 57 56 55 55 54 53 53 54 55 56 57 58 60 62
31 32 34 37 38 40 41 41 41 42 42 43 44 45 46 48 50 53 56 57 58 58 59 60 60 61 60 58 57 55 53 50 47 45 45 47 49 51 52 54 55 56 56
34 35 37 40 42 44 45 45 44 44 45 46 47 48 49 52 55 58 61 61 61 61 61 62 63 62 59 56 54 52 49 46 45 44 43 45 47 49 50 51 52 53 53
36 38 40 43 45 46 47 47 46 46 48 48 48 50 52 55 59 63 65 64 63 63 63 63 61 57 53 50 48 46 44 44 45 47 47 47 49 52 52 52 52 51 51
38 40 43 45 47 49 48 48 47 47 49 49 50 52 55 59 64 67 66 64 63 63 61 57 53 48 44 42 42 43 43 45 47 50 51 51 52 53 55 54 53 51 49
Wind_Direction
310 305 300 296 291 286 280 276 279 284 287 288 290 290 288 287 285 281 277 275 273 272 272 271 269 266 264 264 265 266 268 269 269 269 269 270 271 270 269 267 266 265 263
316 313 307 300 293 286 279 273 273 276 278 281 283 284 285 284 283 283 281 280 279 278 275 273 271 270 268 267 267 269 272 273 273 272 271 270 270 270 270 269 269 268 266
321 319 314 310 304 296 285 275 272 271 274 278 281 282 284 283 282 283 282 282 282 282 281 279 277 276 276 275 274 274 274 275 275 275 274 273 272 271 271 271 270 268 266
327 324 325 328 321 311 302 292 286 282 282 285 286 287 285 283 282 281 281 280 281 283 283 283 282 282 281 280 279 278 278 278 278 278 277 276 274 272 270 269 268 266 264
336 334 338 345 343 335 326 317 306 299 297 296 296 295 291 288 285 283 283 283 284 285 285 284 283 282 282 282 281 280 280 279 279 280 279 278 276 274 271 270 268 265 262
344 341 343 351 358 3 358 346 329 317 312 311 309 305 300 296 294 291 290 288 288 287 286 286 285 284 283 282 281 280 280 279 278 279 280 278 278 277 275 271 270 266 263
345 345 343 347 357 7 6 358 347 334 320 315 312 306 301 298 297 297 296 295 292 290 287 286 284 284 284 283 282 280 279 279 279 279 279 278 277 278 276 273 271 269 265
345 345 344 344 350 355 354 347 338 329 318 311 308 304 302 300 299 297 297 295 294 292 290 287 285 285 284 282 282 281 279 279 277 276 276 275 275 275 275 273 273 272 270
354 355 358 358 352 347 341 333 324 317 312 309 307 307 305 302 299 296 294 293 290 289 287 285 283 282 282 281 281 280 279 279 278 277 276 274 274 275 274 275 275 274 272
5 3 3 359 350 339 330 323 316 311 309 308 308 308 307 304 301 299 295 292 289 285 282 279 278 277 278 277 278 278 278 278 277 276 275 274 274 273 273 273 274 275 274
9 4 1 354 346 338 324 314 309 307 307 306 306 306 306 305 304 303 300 296 293 288 283 279 275 273 273 274 274 275 276 277 278 278 277 276 274 272 271 271 272 272 272
9 6 2 356 352 343 326 315 309 307 307 305 305 304 304 304 304 303 301 300 297 293 289 284 279 276 276 276 276 276 277 278 278 278 277 276 274 273 271 270 270 270 270
5 5 7 359 357 349 337 327 313 306 304 302 303 305 304 304 303 302 300 299 297 296 294 292 288 285 284 284 284 283 281 279 278 277 276 275 273 272 271 271 271 270 271
359 358 359 353 353 348 337 328 317 305 298 296 297 300 301 300 300 299 298 298 297 297 298 297 295 293 290 289 288 286 284 282 281 279 277 276 274 273 272 272 272 271 271
349 348 348 348 347 341 333 324 313 302 298 297 296 299 301 301 301 301 301 302 303 303 304 303 300 297 295 294 293 290 287 286 285 282 280 277 275 274 273 272 272 272 272
339 339 338 339 338 336 331 323 315 307 304 303 304 305 306 306 307 308 309 308 307 307 306 305 304 301 298 297 295 293 291 289 287 285 283 279 276 274 273 272 272 272 272
331 331 332 333 334 334 331 328 323 319 317 315 316 316 316 316 316 314 313 311 309 307 305 304 303 301 298 296 294 292 291 290 287 286 284 281 278 276 274 273 272 271 271
324 324 326 328 331 333 333 333 332 329 329 328 326 325 323 321 319 317 314 312 309 307 305 302 301 299 298 296 294 293 292 290 288 286 285 282 280 278 276 275 274 273 271
318 318 319 323 326 330 334 336 337 337 335 333 331 328 325 323 321 318 315 312 310 307 305 302 300 298 297 295 294 292 291 290 288 286 284 282 281 280 278 276 276 275 274
313 313 316 319 321 325 329 332 335 336 337 336 334 332 329 327 324 322 319 315 312 309 306 303 301 299 297 295 294 292 291 289 287 286 284 283 281 280 279 276 275 274 274
308 311 314 315 316 319 322 325 328 330 332 333 332 332 331 329 327 325 321 317 313 310 306 303 301 299 297 295 293 291 291 289 287 286 285 284 282 281 280 278 276 275 274
307 310 311 311 312 314 317 319 321 323 325 326 326 327 327 327 326 324 321 317 313 310 306 303 301 298 296 294 292 291 290 288 287 286 285 285 285 284 283 281 279 277 276
304 306 309 310 310 312 313 314 314 316 318 320 321 322 323 323 323 322 319 316 312 309 306 303 301 298 295 293 292 292 292 289 287 286 287 288 288 288 287 285 282 280 278
299 302 304 306 307 308 309 308 309 311 313 314 315 317 318 319 319 319 317 315 312 309 306 304 302 299 296 293 292 292 291 289 288 287 289 291 291 291 290 289 285 282 280
294 297 299 301 302 303 304 304 305 307 309 310 311 313 314 315 317 317 316 314 312 310 308 305 302 299 296 294 292 291 290 290 290 291 292 293 294 294 293 291 288 283 279
291 293 294 295 297 298 300 300 301 303 306 307 308 310 312 314 316 316 315 313 311 310 307 305 302 300 297 295 293 292 291 291 292 293 294 295 295 295 295 293 291 286 280
Height
5889 5887 5886 5885 5884 5884 5884 5884 5885 5885 5886 5886 5887 5888 5889 5889 5889 5890 5890 5890 5891 5891 5891 5892 5892 5892 5893 5893 5893 5894 5894 5894 5895 5896 5896 5896 5896 5896 5896 5896 5896 5896 5896
5886 5884 5883 5882 5881 5881 5880 5881 5881 5882 5883 5883 5884 5885 5886 5886 5887 5887 5887 5888 5888 5888 5888 5888 5889 5889 5889 5889 5890 5890 5890 5891 5891 5892 5892 5892 5891 5891 5891 5892 5892 5892 5892
5883 5882 5881 5879 5878 5878 5877 5877 5878 5879 5880 5881 5882 5883 5883 5883 5884 5884 5885 5885 5885 5885 5885 5885 5885 5885 5886 5886 5886 5887 5886 5886 5886 5886 5887 5887 5886 5886 5885 5886 5886 5887 5887
5881 5880 5878 5877 5876 5875 5875 5875 5876 5877 5878 5879 5880 5880 5880 5881 5881 5881 5882 5882 5881 5881 5881 5881 5881 5881 5881 5882 5882 5882 5882 5881 5881 5881 5881 5881 5880 5880 5879 5879 5879 5880 5881
5880 5878 5877 5876 5875 5874 5874 5874 5875 5875 5876 5877 5878 5878 5878 5878 5878 5878 5878 5878 5878 5877 5877 5877 5876 5876 5876 5877 5877 5877 5877 5876 5875 5875 5875 5874 5873 5873 5873 5872 5872 5872 5873
5879 5878 5876 5875 5874 5873 5873 5873 5874 5874 5875 5875 5876 5876 5875 5875 5875 5875 5875 5875 5874 5874 5873 5873 5872 5872 5871 5871 5872 5872 5871 5870 5869 5869 5868 5867 5865 5865 5865 5865 5865 5865 5865
5878 5877 5876 5874 5873 5873 5873 5873 5873 5873 5873 5874 5874 5874 5873 5873 5872 5872 5872 5871 5870 5870 5869 5868 5868 5867 5866 5866 5866 5866 5865 5864 5863 5862 5861 5860 5859 5858 5858 5858 5858 5858 5859
5877 5876 5875 5874 5873 5873 5872 5872 5872 5872 5873 5872 5872 5872 5871 5870 5870 5869 5868 5868 5867 5866 5866 5865 5863 5862 5862 5861 5860 5860 5860 5859 5857 5857 5855 5854 5853 5852 5852 5852 5851 5851 5852
5875 5875 5874 5873 5872 5872 5872 5872 5872 5871 5871 5871 5870 5870 5869 5868 5867 5866 5865 5864 5863 5862 5861 5860 5859 5858 5857 5856 5855 5854 5854 5853 5852 5851 5850 5849 5848 5847 5846 5846 5845 5845 5845
5874 5874 5873 5872 5872 5871 5871 5870 5870 5869 5869 5868 5867 5866 5865 5864 5863 5862 5861 5859 5858 5857 5856 5855 5854 5853 5851 5850 5849 5849 5848 5847 5846 5845 5844 5843 5842 5841 5841 5840 5840 5839 5839
5873 5872 5872 5871 5871 5870 5869 5868 5868 5867 5866 5865 5863 5862 5861 5860 5858 5857 5856 5854 5853 5852 5850 5849 5848 5847 5845 5844 5844 5842 5841 5841 5840 5839 5838 5837 5836 5835 5834 5834 5833 5833 5833
5873 5872 5871 5870 5869 5868 5867 5866 5865 5864 5863 5861 5860 5858 5857 5855 5854 5852 5851 5849 5848 5846 5845 5843 5842 5841 5839 5838 5837 5836 5835 5834 5833 5832 5831 5830 5829 5828 5827 5827 5826 5826 5826
5873 5871 5870 5869 5867 5866 5865 5863 5862 5861 5859 5858 5856 5854 5853 5851 5849 5848 5846 5844 5842 5841 5839 5837 5836 5834 5833 5832 5831 5829 5828 5826 5825 5824 5822 5821 5820 5819 5819 5818 5818 5818 5818
5872 5870 5869 5867 5865 5864 5862 5861 5859 5857 5856 5854 5852 5850 5849 5847 5845 5843 5842 5839 5837 5835 5833 5831 5830 5828 5826 5824 5822 5820 5819 5817 5816 5815 5813 5812 5811 5810 5809 5808 5808 5808 5808
5871 5869 5867 5865 5863 5862 5860 5858 5856 5854 5852 5850 5848 5846 5844 5842 5841 5839 5837 5834 5832 5830 5827 5825 5823 5821 5818 5816 5814 5811 5809 5807 5806 5804 5803 5801 5800 5799 5798 5797 5797 5797 5797
5868 5867 5864 5863 5861 5859 5857 5855 5852 5850 5848 5846 5844 5842 5840 5838 5836 5834 5831 5829 5826 5824 5821 5819 5817 5814 5811 5808 5805 5803 5800 5797 5795 5793 5791 5789 5788 5787 5786 5785 5785 5784 5785
5865 5863 5861 5859 5858 5856 5854 5851 5849 5847 5844 5842 5840 5837 5835 5833 5830 5828 5826 5823 5821 5818 5815 5812 5810 5807 5803 5800 5796 5793 5789 5786 5783 5780 5778 5776 5775 5773 5772 5771 5771 5771 5771
5861 5859 5858 5856 5854 5852 5850 5848 5845 5843 5840 5838 5835 5833 5830 5828 5825 5822 5820 5817 5814 5811 5808 5804 5801 5797 5794 5790 5786 5781 5778 5774 5770 5767 5764 5762 5760 5758 5756 5755 5755 5755 5755
5856 5855 5853 5851 5849 5848 5846 5844 5841 5839 5836 5833 5830 5827 5824 5821 5818 5815 5812 5809 5805 5801 5797 5794 5790 5785 5781 5777 5773 5769 5764 5760 5756 5752 5749 5746 5744 5742 5740 5738 5737 5736 5736
5851 5849 5848 5846 5844 5843 5841 5838 5836 5832 5829 5826 5823 5820 5817 5813 5810 5806 5802 5798 5794 5789 5785 5780 5775 5771 5767 5763 5758 5754 5750 5745 5740 5736 5733 5730 5727 5724 5722 5720 5718 5717 5716
5846 5843 5841 5840 5838 5836 5834 5831 5828 5825 5822 5819 5816 5812 5808 5804 5800 5796 5792 5787 5782 5777 5772 5767 5762 5757 5752 5747 5743 5739 5735 5729 5724 5720 5717 5713 5710 5707 5703 5701 5699 5697 5696
5839 5837 5835 5832 5830 5828 5825 5822 5819 5816 5814 5811 5807 5803 5799 5795 5790 5785 5781 5775 5770 5764 5758 5753 5747 5742 5736 5731 5727 5722 5720 5716 5710 5705 5701 5698 5694 5690 5687 5683 5680 5678 5677
5833 5830 5828 5825 5822 5819 5817 5814 5812 5808 5805 5802 5799 5795 5790 5785 5780 5774 5769 5763 5757 5751 5744 5738 5732 5726 5720 5715 5710 5705 5702 5699 5695 5693 5689 5685 5680 5675 5671 5667 5664 5662 5660
5827 5824 5821 5818 5815 5812 5808 5806 5803 5801 5798 5794 5790 5786 5781 5775 5769 5763 5757 5750 5743 5736 5729 5722 5715 5708 5703 5698 5694 5689 5686 5683 5680 5679 5678 5673 5667 5662 5657 5653 5649 5646 5643
5820 5817 5814 5811 5808 5804 5801 5798 5796 5793 5789 5786 5782 5777 5771 5765 5758 5751 5743 5735 5727 5720 5712 5704 5697 5691 5686 5682 5679 5676 5673 5670 5666 5664 5662 5659 5654 5647 5642 5638 5634 5631 5628
5813 5810 5807 5804 5800 5797 5794 5791 5788 5784 5781 5777 5772 5767 5760 5752 5744 5736 5728 5720 5712 5704 5697 5689 5682 5676 5672 5669 5666 5663 5660 5658 5654 5650 5647 5644 5640 5633 5626 5621 5617 5615 5613